Weather History for KLEX - September, 2013

Change the Weather History Date:

Saturday, September 28, 2013

  Actual Average Record
Temperature  
Mean Temperature 67 °F 63 °F  
Max Temperature 81 °F 74 °F 94 °F (1939)
Min Temperature 53 °F 53 °F 33 °F (1942)
Degree Days  
Heating Degree Days 0 4  
Month to date heating degree days 17 42  
Since 1 July heating degree days 20 44  
Cooling Degree Days 2 2  
Month to date cooling degree days 156 141  
Year to date cooling degree days 1194 1158  
Growing Degree Days 17 (Base 50)    
Moisture  
Dew Point 56 °F    
Average Humidity 68    
Maximum Humidity 93    
Minimum Humidity 42    
Precipitation  
Precipitation 0.00 in 0.09 in 2.49 in (1964)
Month to date precipitation 1.63 2.70  
Year to date precipitation 45.27 34.37  
Snow  
Snow 0.00 in 0.00 in - ()
Month to date snowfall 0.0 0.0  
Since 1 July snowfall 0.0 0.0  
Since 1 September snowfall 0.0 0.0  
Snow Depth 0.00 in    
Sea Level Pressure  
Sea Level Pressure 30.13 in    
Wind  
Wind Speed 5 mph (South)    
Max Wind Speed 9 mph    
Max Gust Speed 13 mph    
Visibility 10 miles    
Events Rain    
T = Trace of Precipitation, MM = Missing Value Source: NWS Daily Summary

Daily Weather History Graph

Daily Weather History Graph

Search for Another Location

Airport or City:

Trip Planner

Search our weather history database for the weather conditions in past years. The results will help you decide how hot, cold, wet, or windy it might be!

Date:

Astronomy

Sep. 28, 2013 Rise Set
Actual Time 7:31 AM EDT 7:25 PM EDT
Civil Twilight 7:05 AM EDT 7:51 PM EDT
Nautical Twilight 6:34 AM EDT 8:22 PM EDT
Astronomical Twilight 6:03 AM EDT 8:53 PM EDT
Moon 1:23 AM EDT (9/28) 3:39 PM EDT (9/28)
Length of Visible Light 12h 46m
Length of Day
11h 54m
Last Quarter, 36% of the Moon is Illuminated
Sep 28
Last Quarter
Oct 4
New
Oct 11
First Quarter
Oct 18
Full
Oct 26
Last Quarter

Hourly Weather History & Observations

Time (EDT) Temp. Heat Index Dew Point Humidity Pressure Visibility Wind Dir Wind Speed Gust Speed Precip Events Conditions
12:54 AM 62.1 °F - 52.0 °F 70% 30.12 in 10.0 mi ESE 5.8 mph - N/A   Clear
1:54 AM 59.0 °F - 52.0 °F 78% 30.12 in 10.0 mi SE 4.6 mph - N/A   Clear
2:54 AM 61.0 °F - 52.0 °F 72% 30.12 in 10.0 mi ESE 5.8 mph - N/A   Clear
3:54 AM 57.9 °F - 53.1 °F 84% 30.12 in 10.0 mi SSE 5.8 mph - N/A   Clear
4:54 AM 55.0 °F - 52.0 °F 89% 30.12 in 10.0 mi SE 4.6 mph - N/A   Clear
5:54 AM 54.0 °F - 51.1 °F 90% 30.13 in 10.0 mi SE 3.5 mph - N/A   Clear
6:54 AM 54.0 °F - 51.1 °F 90% 30.15 in 10.0 mi ESE 3.5 mph - N/A   Clear
7:54 AM 54.0 °F - 51.1 °F 90% 30.17 in 9.0 mi Calm Calm - N/A   Clear
8:54 AM 60.1 °F - 55.0 °F 83% 30.17 in 10.0 mi SSE 3.5 mph - N/A   Mostly Cloudy
9:54 AM 64.9 °F - 57.0 °F 75% 30.19 in 10.0 mi South 6.9 mph - N/A   Scattered Clouds
10:54 AM 70.0 °F - 57.9 °F 65% 30.19 in 10.0 mi South 6.9 mph - N/A   Scattered Clouds
11:54 AM 73.9 °F - 59.0 °F 59% 30.19 in 10.0 mi SSW 6.9 mph - 0.00 in Rain Light Rain
12:54 PM 75.9 °F - 59.0 °F 56% 30.17 in 10.0 mi South 6.9 mph - 0.00 in   Clear
1:54 PM 78.1 °F - 57.9 °F 50% 30.15 in 10.0 mi Calm Calm - N/A   Mostly Cloudy
2:54 PM 80.1 °F 80.2 °F 55.9 °F 43% 30.12 in 10.0 mi WSW 5.8 mph - N/A   Clear
3:54 PM 78.1 °F - 57.0 °F 48% 30.11 in 10.0 mi SW 5.8 mph - N/A   Clear
4:54 PM 78.1 °F - 57.0 °F 48% 30.10 in 10.0 mi South 5.8 mph - N/A   Partly Cloudy
5:54 PM 79.0 °F - 57.9 °F 48% 30.09 in 10.0 mi SSW 4.6 mph - N/A   Scattered Clouds
6:54 PM 75.9 °F - 59.0 °F 56% 30.09 in 10.0 mi SSW 4.6 mph - N/A   Partly Cloudy
7:54 PM 73.0 °F - 57.9 °F 59% 30.09 in 10.0 mi South 3.5 mph - N/A   Clear
8:54 PM 68.0 °F - 57.9 °F 70% 30.09 in 10.0 mi South 3.5 mph - N/A   Clear
9:54 PM 66.0 °F - 57.9 °F 75% 30.09 in 10.0 mi South 5.8 mph - N/A   Clear
10:54 PM 63.0 °F - 57.9 °F 84% 30.09 in 10.0 mi SSE 5.8 mph - N/A   Clear
11:54 PM 63.0 °F - 57.9 °F 84% 30.09 in 10.0 mi South 5.8 mph - N/A   Clear